Location: Asheville, NC
(35.6000°N, 82.5500°W)
Time: 20:20:59

AO-7 - Pass Details

Date: 18 March 2018
Orbit: 1440 x 1459 km, 101.7° (Epoch: 19 March)

Event Time Altitude Azimuth Distance (km) Brightness Sun altitude
Rises 06:46:08 0° 4° (N) 4,542 ? -11.1°
Reaches altitude 10° 06:49:29 10° 353° (N) 3,559 ? -10.4°
Maximum altitude 06:55:48 25° 302° (WNW) 2,560 ? -9.1°
Drops below altitude 10° 07:02:08 10° 251° (WSW) 3,545 ? -7.9°
Enters shadow 07:03:25 - 246° (WSW) 3,902 ? -7.6°
